Rechercher aéroport 
image banner adimage banner adimage banner ad
image banner ad

6PN3 - Port Meadville

Situé à Meadville, United States

ICAO - 6PN3, IATA -

Données fournies par Airmate  

Information générale

Coordonnées: N41°35'50" W80°10'15"
Élévation : 1220 feet MSL.
 
Voir autres Aéroports à Pennsylvania

Données opérationnelles

Special qualification required
Heure actuelle UTC:
Heure actuelle locale:
Météo à : KGKJ - Port Meadville ( 5 km )
METAR: KGKJ 270453Z AUTO 22004KT 10SM CLR 21/15 A3006 RMK AO2 SLP167 T02060150 402890178
Voir NOTAMs / SUP AIP / TFR affectant cet aéroport [VIEW]
Fréquences de communication: [VIEW]

Pistes:

Coordonnées de l'aéroport

Adresse: Meadville United States

Vue satellite de 6PN3